EHI
0 0 0 0 0 0 0 0 0 0 0 0 0 0 0 0 0 0 0 1 1 0 0 0 0 0 0 0 0 0 0 0 0 0 0 0 0 0 0 0 0 0 0 0
0 0 0 0 0 0 0 0 0 0 0 0 0 0 0 0 0 0 1 2 2 1 0 0 0 0 0 0 0 0 0 0 0 0 0 0 0 0 0 0 0 0 0 0
0 0 0 0 0 0 0 0 0 0 0 0 0 0 0 0 0 0 2 3 2 1 0 0 0 0 0 0 0 0 0 0 0 0 0 0 0 0 0 0 0 0 0 0
0 0 0 0 0 0 0 0 0 0 0 0 0 0 0 0 0 0 1 2 2 1 0 0 0 0 0 0 0 0 0 0 0 0 0 0 0 0 0 0 0 0 0 0
0 0 0 0 0 0 0 0 0 0 0 0 0 0 0 0 0 0 0 1 2 2 1 0 0 0 0 0 0 0 0 0 0 0 0 0 0 0 0 0 0 0 0 0
0 0 0 0 0 0 0 0 0 0 0 0 0 0 0 0 0 0 0 0 1 2 2 1 0 0 0 0 0 0 0 0 0 0 0 0 0 0 0 0 0 0 0 0
0 0 0 0 0 0 0 0 0 0 0 0 0 0 0 0 0 0 0 0 0 1 1 1 0 0 0 0 0 0 0 0 0 0 0 0 0 0 0 0 0 0 0 0
0 0 0 0 0 0 0 0 0 0 0 0 0 0 0 0 0 0 0 0 0 0 0 0 0 0 0 0 0 0 0 0 0 0 0 0 0 0 0 0 0 0 0 0
0 0 0 0 0 0 0 0 0 0 0 0 0 0 0 0 0 0 0 0 0 0 0 0 0 0 0 0 0 0 0 0 0 0 0 0 0 0 0 0 0 0 0 0
0 0 0 0 0 0 0 0 0 0 0 0 0 0 0 0 0 0 0 0 0 0 0 0 0 0 0 0 0 0 0 0 0 0 0 0 0 0 0 0 0 0 0 0
0 0 0 0 0 0 0 0 0 0 0 0 0 0 0 0 0 0 0 0 0 0 0 0 0 0 0 0 0 0 0 0 0 0 0 0 0 0 0 0 0 0 0 0
0 0 0 0 0 0 0 0 0 0 0 0 0 0 0 0 0 0 0 0 0 0 0 0 0 0 0 0 0 0 0 0 0 0 0 0 0 0 0 0 0 0 0 0
0 0 0 0 0 0 0 0 0 0 0 0 0 0 0 0 0 0 0 0 0 0 0 0 0 0 0 0 0 0 0 0 0 0 0 0 0 0 0 0 0 0 0 0
0 0 0 0 0 0 0 0 0 0 0 0 0 0 0 0 0 0 0 0 0 0 0 0 0 0 0 0 0 0 0 0 0 0 0 0 0 0 0 0 0 0 0 0
0 0 0 0 0 0 0 0 0 0 0 0 0 0 0 0 0 0 0 0 0 0 0 0 0 0 0 0 0 0 0 0 0 0 0 0 0 0 0 0 0 0 0 0
0 0 0 0 0 0 0 0 0 0 0 0 0 0 0 0 0 0 0 0 0 0 0 0 0 0 0 0 0 0 0 0 0 0 0 0 0 0 0 0 0 0 0 0
0 0 0 0 0 0 0 0 0 0 0 0 0 0 0 0 0 0 0 0 0 0 0 0 0 0 0 0 0 0 0 0 0 0 0 0 0 0 0 0 0 0 0 0
0 0 0 0 0 0 0 0 0 0 0 0 0 0 0 0 0 0 0 0 0 0 0 0 0 0 0 0 0 0 0 0 0 0 0 0 0 0 0 0 0 0 0 0
0 0 0 0 0 0 0 0 0 0 0 0 0 0 0 0 0 0 0 0 0 0 0 0 0 0 0 0 0 0 0 0 0 0 0 0 0 0 0 0 0 0 0 0
0 0 0 0 0 0 0 0 0 0 0 0 0 0 0 0 0 0 0 0 0 0 0 0 0 0 0 0 0 0 0 0 0 0 0 0 0 0 0 0 0 0 0 0
0 0 0 0 0 0 0 0 0 0 0 0 0 0 0 0 0 0 0 0 0 0 0 0 0 0 0 0 0 0 0 0 0 0 0 0 0 0 0 0 0 0 0 0
0 0 0 0 0 0 0 0 0 0 0 0 0 0 0 0 0 0 0 0 0 0 0 0 0 0 0 0 0 0 0 0 0 0 0 0 0 0 0 0 0 0 0 0
0 0 0 0 0 0 0 0 0 0 0 0 0 0 0 0 0 0 0 0 0 0 0 0 0 0 0 0 0 0 0 0 0 0 0 0 0 0 0 0 0 0 0 0
0 0 0 0 0 0 0 0 0 0 0 0 0 0 0 0 0 0 0 0 0 0 0 0 0 0 0 0 0 0 0 0 0 0 0 0 0 0 0 0 0 0 0 0
0 0 0 0 0 0 0 0 0 0 0 0 0 0 0 0 0 0 0 0 0 0 0 0 0 0 0 0 0 0 0 0 0 0 0 0 0 0 0 0 0 0 0 0
0 0 0 0 0 0 0 0 0 0 0 0 0 0 0 0 0 0 0 0 0 0 0 0 0 0 0 0 0 0 0 0 0 0 0 0 0 0 0 0 0 0 0 0
Wind_Speed
4 4 4 6 6 4 3 2 2 4 4 2 6 8 9 7 7 9 9 9 11 11 9 8 9 10 9 8 8 8 7 6 4 3 2 2 1 0 0 0 1 1 1 2
4 1 5 5 6 4 2 1 2 4 4 3 4 8 9 7 10 10 11 11 12 9 7 8 9 9 10 10 9 8 8 7 5 3 3 2 2 1 1 1 0 0 0 1
5 4 5 6 5 4 2 3 4 3 4 3 2 8 7 5 5 6 7 8 10 13 13 11 10 10 10 10 10 9 8 7 6 5 3 3 3 2 1 1 1 2 1 0
1 2 4 5 4 5 3 6 4 2 2 3 1 3 9 5 2 5 6 6 8 10 11 11 11 11 11 10 9 9 9 8 6 6 5 4 3 2 2 2 2 2 1 1
2 3 4 4 5 6 6 3 1 1 0 3 2 1 8 3 2 5 6 7 8 10 12 13 13 12 10 10 9 9 8 7 6 6 6 5 3 2 2 1 1 1 1 2
2 3 4 5 3 4 1 4 5 5 4 2 3 2 6 4 5 4 5 6 7 8 10 10 9 8 7 8 8 8 9 7 6 6 6 6 5 4 2 1 1 1 1 2
2 2 2 2 2 2 4 6 5 6 5 5 4 1 7 6 4 5 6 6 6 7 9 9 10 10 9 10 10 9 10 7 7 7 6 6 6 5 5 3 3 2 1 2
2 3 3 3 4 3 2 7 6 2 3 5 5 2 6 5 3 2 3 4 5 7 8 10 12 12 11 11 11 10 10 8 8 7 6 5 5 4 3 4 3 3 3 3
4 4 3 4 3 5 3 2 5 6 0 2 5 4 6 3 2 1 1 3 5 7 8 10 10 11 11 12 12 12 11 9 8 8 6 5 5 5 5 4 3 3 3 3
4 1 2 1 3 1 4 5 5 4 2 2 6 4 4 5 5 4 4 5 6 6 7 8 10 11 11 12 10 10 11 10 9 8 7 6 6 6 5 4 4 3 4 3
3 3 2 1 2 3 0 1 4 4 4 4 2 7 6 6 6 6 7 7 7 8 8 9 9 10 10 9 9 10 9 8 8 8 7 6 6 6 5 5 5 4 3 3
2 5 0 4 5 3 4 4 5 3 2 4 3 9 8 5 5 5 7 6 6 7 7 7 8 8 8 9 9 10 10 9 9 9 7 7 6 6 5 5 5 4 4 4
4 6 4 7 8 5 1 1 4 5 4 3 3 8 6 5 6 5 5 6 5 4 4 5 5 7 9 10 10 10 10 10 9 8 8 7 7 6 6 6 5 5 4 3
5 5 5 5 6 4 4 4 2 4 3 4 7 8 8 8 6 6 5 5 3 2 2 3 4 6 8 9 10 10 10 10 9 9 9 8 8 8 8 7 6 5 5 4
5 2 2 4 5 3 3 5 5 4 7 8 8 6 7 6 4 3 4 4 4 3 2 3 4 5 6 7 8 9 10 10 10 10 10 10 9 8 7 7 6 5 5 5
4 2 2 4 5 5 5 6 5 4 3 4 2 3 5 3 2 4 6 5 5 4 4 4 4 4 5 7 8 9 10 10 10 11 11 9 8 8 8 7 7 6 5 4
1 2 2 4 6 5 5 4 1 1 2 1 2 4 4 4 5 5 5 6 6 6 5 5 5 6 6 7 8 10 11 9 10 11 10 10 9 9 9 8 7 7 6 5
4 3 3 1 2 3 7 2 1 4 4 3 2 2 3 1 1 4 5 6 7 8 7 6 6 6 6 5 5 7 7 9 11 11 11 10 10 10 9 8 8 8 6 5
8 7 3 3 2 5 6 5 2 2 2 5 3 4 5 4 4 6 8 7 6 6 6 6 6 5 5 4 4 4 5 7 9 11 12 12 11 11 10 10 9 8 6 6
5 5 4 3 3 5 5 7 5 5 2 6 4 5 5 6 5 6 10 9 8 8 8 8 7 5 4 4 2 3 6 7 10 12 12 11 12 12 12 12 10 7 6 7
3 2 3 4 4 6 5 6 4 3 3 3 3 4 4 2 2 6 8 8 8 8 9 9 8 7 6 4 2 3 5 9 11 9 9 10 12 13 12 10 8 7 7 6
2 2 2 3 3 6 5 4 3 3 1 1 2 2 2 2 4 6 8 8 9 10 10 9 9 9 7 5 3 4 6 8 7 6 8 10 11 11 10 9 9 8 8 7
1 3 4 5 5 2 2 2 1 2 1 1 2 3 2 3 5 6 7 8 9 9 9 9 9 10 9 6 4 6 7 5 4 6 8 9 10 10 9 11 10 7 7 7
4 2 1 1 2 1 2 2 2 1 1 1 1 2 2 3 5 5 6 7 8 8 9 9 9 10 11 9 7 7 7 4 4 6 7 7 8 8 8 8 9 8 8 8
5 2 2 4 4 2 2 2 1 1 1 2 2 3 3 3 5 5 5 6 7 8 7 7 8 9 11 11 10 8 6 4 4 5 6 6 7 8 8 7 7 9 9 11
5 6 5 7 6 4 5 4 3 2 3 3 3 4 4 3 4 5 5 5 6 8 8 9 9 10 11 11 10 9 6 5 5 5 5 5 5 6 6 6 3 2 5 10
Wind_Direction
124 104 159 185 176 163 164 166 218 254 255 216 240 254 255 232 215 216 215 205 204 204 194 171 164 156 151 152 149 149 144 148 135 116 112 109 121 220 354 252 156 93 56 33
78 169 202 168 171 166 157 165 260 273 257 223 259 269 261 232 220 214 209 206 202 196 180 173 165 159 161 161 158 153 153 155 153 146 151 159 163 192 220 268 304 256 28 7
147 207 177 157 171 185 216 212 228 246 328 341 339 313 300 274 225 217 210 202 193 187 183 178 171 170 166 166 166 162 162 158 157 145 120 88 62 38 23 345 303 289 265 284
160 234 150 157 188 176 233 235 222 236 23 306 59 300 300 299 232 211 209 193 192 187 180 177 174 174 175 175 167 158 159 157 158 147 136 137 143 174 224 228 250 275 260 265
209 190 150 173 211 184 215 226 231 280 110 336 341 180 291 316 226 232 222 203 194 185 181 182 181 180 176 168 163 159 156 158 161 156 149 148 160 192 224 234 255 281 290 283
203 193 177 194 213 191 164 42 25 40 60 343 264 179 278 259 228 227 229 214 201 188 185 184 179 167 163 160 159 158 157 164 167 161 159 164 173 183 192 214 222 263 276 293
9 329 233 171 84 9 80 74 28 9 10 272 281 185 258 267 241 197 197 207 198 183 178 174 170 171 170 167 167 166 163 170 176 171 174 180 185 185 193 203 204 201 218 247
139 282 240 190 166 176 162 132 145 176 247 291 340 324 276 284 256 187 172 179 174 180 183 183 183 180 178 176 173 171 173 176 180 181 187 189 187 184 199 206 197 197 206 219
164 249 260 207 174 146 130 160 169 140 185 331 319 316 320 326 320 275 193 176 191 193 192 192 189 185 183 181 181 179 178 180 185 187 186 191 192 191 200 206 198 197 210 219
143 160 273 199 71 32 155 153 91 94 106 326 319 306 259 267 269 270 249 229 223 213 201 196 193 192 191 188 185 181 180 184 187 186 187 191 195 197 196 192 200 202 211 216
92 114 341 38 184 217 174 97 105 110 145 146 296 284 248 239 246 242 244 237 227 218 210 201 199 197 192 185 182 184 186 185 186 188 190 187 194 197 192 193 202 202 206 210
73 109 119 271 271 211 172 179 144 140 234 163 177 269 278 265 267 255 257 255 239 224 214 206 199 190 187 189 190 189 189 189 191 189 186 190 194 190 190 198 205 202 207 214
89 92 58 352 343 353 337 208 157 139 134 164 186 264 299 332 318 303 292 289 272 251 231 212 199 195 196 197 196 195 193 194 191 184 184 188 192 192 197 203 204 201 204 211
97 102 145 189 235 264 287 287 246 142 169 221 225 248 298 313 311 319 325 318 308 278 248 218 215 216 210 204 200 198 198 194 187 185 186 191 197 198 199 200 199 199 197 198
81 116 214 233 255 264 263 274 268 219 205 204 239 238 267 279 285 309 337 354 5 346 312 252 230 227 225 218 211 204 201 194 188 186 192 199 199 196 195 196 197 198 199 201
55 103 16 327 322 337 313 297 282 259 242 227 234 273 282 292 24 19 6 8 4 340 313 285 264 250 234 225 218 210 204 197 188 191 198 197 191 191 195 197 195 195 202 206
10 106 77 288 310 357 310 282 269 335 331 169 192 261 309 23 30 19 13 10 355 337 323 306 282 257 244 235 220 213 209 195 191 197 198 194 190 192 197 197 192 197 202 200
175 130 141 233 358 256 249 279 122 96 36 32 55 352 358 352 73 42 27 12 353 345 337 320 299 283 264 250 236 219 204 192 195 199 199 196 192 195 194 191 195 201 197 199
172 152 149 146 214 274 299 313 297 155 40 3 25 9 0 346 18 7 1 357 346 339 331 316 302 286 277 271 256 214 202 199 199 203 203 199 193 193 191 195 200 199 194 200
115 123 136 149 183 239 265 302 315 99 52 345 21 22 4 24 25 319 329 340 346 344 343 337 329 326 309 289 276 219 211 204 210 213 210 201 194 193 195 199 198 192 192 200
64 93 165 189 213 251 276 304 30 95 250 316 18 29 25 31 252 282 321 341 344 342 340 345 343 335 313 305 292 252 229 224 224 219 209 199 196 197 198 195 190 187 189 190
191 166 195 158 193 250 313 31 89 202 222 4 23 21 14 332 322 334 341 341 343 343 343 344 342 330 323 321 303 279 254 245 236 219 209 205 201 200 196 188 189 185 183 184
199 186 192 189 210 236 6 79 100 127 103 348 342 328 339 341 337 336 337 336 336 336 335 334 333 329 327 325 306 277 277 274 247 223 218 211 204 201 191 187 188 183 183 187
297 7 118 294 270 323 360 48 60 77 65 313 313 320 339 327 323 327 330 332 333 330 330 329 332 332 326 322 310 286 288 287 252 234 226 214 201 200 195 190 189 187 188 190
253 324 319 275 272 312 320 322 311 329 348 335 320 310 308 310 313 315 320 322 322 323 323 326 324 319 316 318 311 305 305 291 263 250 235 220 207 197 195 194 195 194 198 194
215 210 216 241 239 224 257 267 280 299 307 305 311 316 315 306 304 311 310 311 315 319 320 322 321 318 314 315 314 310 307 295 263 258 245 227 214 201 192 182 179 203 200 201